Volver al catálogo

STARLINK-31285

ActivoComunicacionesVLEO
NORAD 59244·PAYLOAD·🇺🇸 United States

Lanzado Mar 16, 2024 desde Cape Canaveral Space Force Station

Loading…

Próximos Pases (próximas 24 horas)

TLE

ActualizadoSource: CelesTrak SupGP

Época: Sep 15, 2026, 03:12 UTC

1 59244C 24049P   26258.13381944  .00041051  00000+0  14870-2 0  2589
2 59244  42.9998 153.3710 0001276 273.7419  42.1461 15.27553934    19

Sigue STARLINK-31285 en tiempo real con AllMySat

Download on the App Store